Powrót do katalogu

ORION 3

AktywnyŁącznośćMEO
NORAD 25727·PAYLOAD·🇺🇸 United States

Wystrzelony May 5, 1999 z Cape Canaveral Space Force Station

Loading…

Następne Przeloty (najbliższe 24 godziny)

TLE

ŚwieżeSource: Space-Track

Epoka: Sep 14, 2026, 13:34 UTC

1 25727U 99024A   26257.56588381  .00000096  00000-0  61674-3 0  9995
2 25727  19.8274  82.1371 0041310 199.3509 160.5248 10.39162336 78110

Śledź ORION 3 w czasie rzeczywistym z AllMySat

Download on the App Store